TGW564 WSSS-RPMD

Flight info

Callsign TGW564
Flight time 3h 16m
Altitude 37000
Route TOMAN5B TOMAN M646 BRU W461 VSN A341 ZAM W10 LINAO LINAO2R
Aircraft A21N/M-SDE2FGHIJ3J7RWYZ/LB1D1

Departure

Time 2026-05-06 08:57
Airport Singapore Changi Airport (WSSS)

Arrival

Time 2026-05-06 12:13
Airport Francisco Bangoy International Airport (RPMD)
Time Latitude Longitude Altitude Speed Heading
2026-05-06 08:44 1.36317 103.99344 29 ft 0 kts 302°
2026-05-06 08:46 1.36306 103.99361 29 ft 4 kts 302°
2026-05-06 08:47 1.36292 103.99384 29 ft 4 kts 302°
2026-05-06 08:47 1.36280 103.99402 29 ft 3 kts 303°
2026-05-06 08:47 1.36264 103.99420 29 ft 4 kts 340°
2026-05-06 08:47 1.36248 103.99420 29 ft 2 kts 27°
2026-05-06 08:48 1.36269 103.99434 29 ft 4 kts 41°
2026-05-06 08:48 1.36286 103.99454 29 ft 3 kts 55°
2026-05-06 08:48 1.36299 103.99472 29 ft 4 kts 52°
2026-05-06 08:48 1.36313 103.99492 29 ft 1 kts 55°
2026-05-06 08:49 1.36314 103.99492 29 ft 0 kts 55°
2026-05-06 08:54 1.36319 103.99500 29 ft 3 kts 55°
2026-05-06 08:54 1.36333 103.99526 29 ft 5 kts 78°
2026-05-06 08:54 1.36324 103.99568 29 ft 7 kts 110°
2026-05-06 08:54 1.36302 103.99623 29 ft 10 kts 113°
2026-05-06 08:55 1.36272 103.99690 29 ft 12 kts 113°
2026-05-06 08:55 1.36238 103.99771 29 ft 14 kts 113°
2026-05-06 08:55 1.36204 103.99848 29 ft 7 kts 113°
2026-05-06 08:55 1.36180 103.99882 29 ft 6 kts 167°
2026-05-06 08:56 1.36132 103.99867 29 ft 8 kts 204°
2026-05-06 08:56 1.36071 103.99841 29 ft 11 kts 203°
2026-05-06 08:56 1.35858 103.99749 29 ft 68 kts 203°
2026-05-06 08:56 1.35201 103.99472 29 ft 134 kts 202°
2026-05-06 08:57 1.34183 103.99039 64 ft 177 kts 204°
2026-05-06 08:57 1.33068 103.98570 684 ft 173 kts 203°
2026-05-06 08:57 1.31939 103.98102 1268 ft 177 kts 204°
2026-05-06 08:57 1.30786 103.97615 1831 ft 183 kts 204°
2026-05-06 08:58 1.29590 103.97113 2301 ft 194 kts 204°
2026-05-06 08:58 1.28304 103.96569 2825 ft 207 kts 204°
2026-05-06 08:58 1.26935 103.95993 3403 ft 220 kts 204°
2026-05-06 08:58 1.25428 103.95466 3851 ft 242 kts 188°
2026-05-06 08:59 1.23703 103.95615 4291 ft 260 kts 161°
2026-05-06 08:59 1.22127 103.96562 4973 ft 270 kts 140°
2026-05-06 08:59 1.20898 103.97995 5769 ft 275 kts 118°
2026-05-06 08:59 1.20365 103.99806 6578 ft 279 kts 95°
2026-05-06 09:00 1.20364 104.01742 7391 ft 283 kts 89°
2026-05-06 09:00 1.20444 104.03737 7891 ft 299 kts 88°
2026-05-06 09:00 1.20520 104.05887 8247 ft 317 kts 89°
2026-05-06 09:00 1.20584 104.08156 8633 ft 334 kts 89°
2026-05-06 09:01 1.20641 104.10518 9065 ft 346 kts 89°
2026-05-06 09:01 1.20695 104.12923 9647 ft 351 kts 89°
2026-05-06 09:01 1.20745 104.15372 10336 ft 354 kts 89°
2026-05-06 09:01 1.20796 104.17841 11058 ft 357 kts 89°
2026-05-06 09:02 1.20847 104.20344 11792 ft 359 kts 89°
2026-05-06 09:02 1.20895 104.22861 12506 ft 362 kts 89°
2026-05-06 09:02 1.20946 104.25384 13192 ft 365 kts 89°
2026-05-06 09:02 1.20996 104.27912 13879 ft 369 kts 89°
2026-05-06 09:03 1.21046 104.30481 14553 ft 372 kts 88°
2026-05-06 09:03 1.21100 104.33092 15200 ft 375 kts 89°
2026-05-06 09:03 1.21177 104.35709 15812 ft 379 kts 85°
2026-05-06 09:03 1.21785 104.38277 16433 ft 383 kts 71°
2026-05-06 09:04 1.22732 104.40783 17085 ft 385 kts 69°
2026-05-06 09:04 1.23707 104.43287 17657 ft 388 kts 69°
2026-05-06 09:04 1.24667 104.45797 18209 ft 391 kts 69°
2026-05-06 09:04 1.25634 104.48359 18739 ft 395 kts 70°
2026-05-06 09:05 1.26592 104.50920 19254 ft 398 kts 70°
2026-05-06 09:05 1.27564 104.53526 19739 ft 402 kts 70°
2026-05-06 09:05 1.28212 104.55265 20058 ft 404 kts 70°
2026-05-06 09:05 1.29194 104.57908 20523 ft 407 kts 70°
2026-05-06 09:06 1.30508 104.61452 21129 ft 411 kts 70°
2026-05-06 09:06 1.31508 104.64143 21584 ft 414 kts 70°
2026-05-06 09:06 1.32175 104.65936 21857 ft 415 kts 70°
2026-05-06 09:06 1.33160 104.68672 22263 ft 418 kts 73°
2026-05-06 09:07 1.33729 104.71529 22670 ft 420 kts 85°
2026-05-06 09:07 1.33856 104.74457 23057 ft 422 kts 89°
2026-05-06 09:07 1.33903 104.77403 23419 ft 425 kts 89°
2026-05-06 09:07 1.33951 104.80369 23791 ft 427 kts 89°
2026-05-06 09:08 1.34008 104.83344 24135 ft 430 kts 89°
2026-05-06 09:08 1.34071 104.86312 24478 ft 433 kts 89°
2026-05-06 09:08 1.34139 104.89333 24823 ft 436 kts 89°
2026-05-06 09:08 1.34211 104.92374 25171 ft 438 kts 89°
2026-05-06 09:09 1.34288 104.95434 25515 ft 440 kts 89°
2026-05-06 09:09 1.34366 104.98504 25844 ft 442 kts 89°
2026-05-06 09:09 1.34442 105.01547 26174 ft 444 kts 88°
2026-05-06 09:09 1.34518 105.04639 26484 ft 446 kts 89°
2026-05-06 09:10 1.34588 105.07679 26784 ft 449 kts 89°
2026-05-06 09:10 1.34659 105.10813 27094 ft 450 kts 89°
2026-05-06 09:10 1.34732 105.13857 27391 ft 451 kts 89°
2026-05-06 09:10 1.34762 105.15107 27517 ft 452 kts 89°
2026-05-06 09:11 1.34835 105.18101 27788 ft 454 kts 89°
2026-05-06 09:11 1.34914 105.21265 28057 ft 456 kts 89°
2026-05-06 09:11 1.34992 105.24452 28327 ft 458 kts 89°
2026-05-06 09:11 1.35068 105.27603 28615 ft 460 kts 89°
2026-05-06 09:12 1.35143 105.30802 28913 ft 461 kts 89°
2026-05-06 09:12 1.35221 105.34019 29165 ft 463 kts 89°
2026-05-06 09:12 1.35292 105.37233 29411 ft 464 kts 89°
2026-05-06 09:12 1.35364 105.40468 29678 ft 465 kts 89°
2026-05-06 09:13 1.35440 105.43704 30003 ft 465 kts 89°
2026-05-06 09:13 1.35518 105.46900 30352 ft 463 kts 89°
2026-05-06 09:13 1.35594 105.50111 30673 ft 462 kts 89°
2026-05-06 09:13 1.35671 105.53325 30946 ft 463 kts 89°
2026-05-06 09:14 1.35748 105.56544 31242 ft 462 kts 89°
2026-05-06 09:14 1.35825 105.59752 31536 ft 461 kts 89°
2026-05-06 09:14 1.35901 105.62947 31805 ft 461 kts 89°
2026-05-06 09:14 1.35980 105.66155 32083 ft 461 kts 89°
2026-05-06 09:15 1.36059 105.69338 32369 ft 460 kts 89°
2026-05-06 09:15 1.36137 105.72536 32661 ft 460 kts 89°
2026-05-06 09:15 1.36216 105.75730 32877 ft 460 kts 88°
2026-05-06 09:15 1.36552 105.78905 33120 ft 460 kts 79°
2026-05-06 09:16 1.37453 105.81968 33377 ft 460 kts 70°
2026-05-06 09:16 1.38611 105.84951 33637 ft 460 kts 69°
2026-05-06 09:16 1.39792 105.87922 33878 ft 459 kts 69°
2026-05-06 09:16 1.40944 105.90851 34108 ft 458 kts 69°
2026-05-06 09:17 1.42113 105.93821 34339 ft 458 kts 69°
2026-05-06 09:17 1.43280 105.96799 34579 ft 457 kts 69°
2026-05-06 09:17 1.44433 105.99753 34784 ft 457 kts 69°
2026-05-06 09:17 1.45584 106.02705 35018 ft 456 kts 69°
2026-05-06 09:18 1.46732 106.05657 35238 ft 455 kts 69°
2026-05-06 09:18 1.47871 106.08607 35442 ft 454 kts 69°
2026-05-06 09:18 1.48991 106.11513 35666 ft 453 kts 69°
2026-05-06 09:18 1.50120 106.14456 35863 ft 452 kts 69°
2026-05-06 09:19 1.51252 106.17389 36061 ft 451 kts 69°
2026-05-06 09:19 1.52388 106.20318 36227 ft 451 kts 69°
2026-05-06 09:19 1.53518 106.23233 36384 ft 450 kts 69°
2026-05-06 09:19 1.54656 106.26159 36530 ft 450 kts 69°
2026-05-06 09:20 1.55796 106.29064 36708 ft 449 kts 69°
2026-05-06 09:20 1.56934 106.31965 36815 ft 448 kts 69°
2026-05-06 09:20 1.58049 106.34826 36812 ft 445 kts 69°
2026-05-06 09:21 1.60287 106.40586 36786 ft 441 kts 69°
2026-05-06 09:21 1.62492 106.46283 36781 ft 441 kts 69°
2026-05-06 09:22 1.64709 106.52006 36780 ft 441 kts 69°
2026-05-06 09:22 1.66922 106.57700 36777 ft 441 kts 69°
2026-05-06 09:23 1.69146 106.63432 36779 ft 441 kts 69°
2026-05-06 09:23 1.71366 106.69160 36782 ft 441 kts 69°
2026-05-06 09:24 1.73580 106.74884 36780 ft 441 kts 69°
2026-05-06 09:24 1.75799 106.80616 36781 ft 441 kts 70°
2026-05-06 09:25 1.77981 106.86252 36775 ft 441 kts 69°
2026-05-06 09:25 1.80191 106.91981 36778 ft 441 kts 69°
2026-05-06 09:26 1.82408 106.97712 36774 ft 441 kts 69°
2026-05-06 09:26 1.84612 107.03400 36780 ft 442 kts 69°
2026-05-06 09:27 1.86822 107.09128 36781 ft 442 kts 69°
2026-05-06 09:27 1.89039 107.14869 36780 ft 441 kts 69°
2026-05-06 09:28 1.91256 107.20601 36782 ft 442 kts 69°
2026-05-06 09:28 1.93472 107.26335 36786 ft 442 kts 69°
2026-05-06 09:29 1.95689 107.32070 36782 ft 442 kts 69°
2026-05-06 09:29 1.97901 107.37791 36779 ft 441 kts 70°
2026-05-06 09:30 2.00083 107.43437 36785 ft 441 kts 70°
2026-05-06 09:30 2.02304 107.49153 36782 ft 441 kts 69°
2026-05-06 09:31 2.04537 107.54871 36778 ft 442 kts 69°
2026-05-06 09:31 2.06775 107.60606 36779 ft 442 kts 69°
2026-05-06 09:32 2.09004 107.66329 36781 ft 441 kts 69°
2026-05-06 09:32 2.11217 107.72019 36783 ft 441 kts 69°
2026-05-06 09:33 2.13445 107.77746 36782 ft 442 kts 70°
2026-05-06 09:33 2.15673 107.83478 36774 ft 441 kts 69°
2026-05-06 09:34 2.17888 107.89205 36768 ft 442 kts 70°
2026-05-06 09:34 2.20112 107.94937 36768 ft 442 kts 70°
2026-05-06 09:35 2.22308 108.00612 36767 ft 441 kts 70°
2026-05-06 09:35 2.24510 108.06309 36769 ft 442 kts 70°
2026-05-06 09:36 2.26722 108.12039 36770 ft 442 kts 70°
2026-05-06 09:36 2.28940 108.17784 36770 ft 442 kts 70°
2026-05-06 09:37 2.31154 108.23516 36766 ft 442 kts 70°
2026-05-06 09:37 2.33368 108.29247 36769 ft 442 kts 70°
2026-05-06 09:38 2.35562 108.34944 36769 ft 441 kts 70°
2026-05-06 09:38 2.37779 108.40685 36769 ft 441 kts 70°
2026-05-06 09:39 2.39989 108.46415 36769 ft 442 kts 69°
2026-05-06 09:39 2.42209 108.52154 36771 ft 442 kts 70°
2026-05-06 09:40 2.44391 108.57833 36770 ft 441 kts 70°
2026-05-06 09:40 2.47708 108.66418 36770 ft 441 kts 69°
2026-05-06 09:41 2.49915 108.72157 36770 ft 442 kts 69°
2026-05-06 09:41 2.52120 108.77894 36763 ft 441 kts 69°
2026-05-06 09:42 2.54316 108.83588 36760 ft 441 kts 69°
2026-05-06 09:42 2.56526 108.89308 36758 ft 440 kts 69°
2026-05-06 09:43 2.58741 108.95041 36758 ft 441 kts 69°
2026-05-06 09:43 2.60955 109.00723 36761 ft 441 kts 70°
2026-05-06 09:44 2.63175 109.06441 36759 ft 441 kts 69°
2026-05-06 09:44 2.65398 109.12161 36763 ft 441 kts 69°
2026-05-06 09:45 2.67619 109.17874 36758 ft 442 kts 69°
2026-05-06 09:45 2.69825 109.23568 36783 ft 442 kts 69°
2026-05-06 09:46 2.72044 109.29291 36788 ft 441 kts 69°
2026-05-06 09:46 2.74269 109.35022 36791 ft 441 kts 69°
2026-05-06 09:47 2.76490 109.40735 36786 ft 441 kts 69°
2026-05-06 09:47 2.78708 109.46442 36778 ft 441 kts 69°
2026-05-06 09:48 2.80913 109.52137 36779 ft 440 kts 69°
2026-05-06 09:48 2.83142 109.57863 36780 ft 440 kts 69°
2026-05-06 09:49 2.84992 109.62617 36783 ft 440 kts 69°
2026-05-06 09:49 2.87570 109.69261 36781 ft 441 kts 69°
2026-05-06 09:50 2.89785 109.74980 36789 ft 442 kts 69°
2026-05-06 09:50 2.92008 109.80716 36783 ft 441 kts 69°
2026-05-06 09:51 2.93859 109.85476 36784 ft 441 kts 69°
2026-05-06 09:51 2.96437 109.92135 36781 ft 441 kts 69°
2026-05-06 09:52 2.98282 109.96899 36780 ft 441 kts 69°
2026-05-06 09:52 3.00502 110.02623 36779 ft 442 kts 69°
2026-05-06 09:53 3.02726 110.08361 36781 ft 442 kts 69°
2026-05-06 09:53 3.04947 110.14087 36781 ft 442 kts 69°
2026-05-06 09:54 3.07168 110.19820 36779 ft 442 kts 69°
2026-05-06 09:54 3.09378 110.25538 36783 ft 442 kts 69°
2026-05-06 09:55 3.11578 110.31220 36783 ft 442 kts 69°
2026-05-06 09:55 3.13805 110.36971 36788 ft 441 kts 69°
2026-05-06 09:56 3.16012 110.42675 36788 ft 441 kts 69°
2026-05-06 09:56 3.18234 110.48418 36790 ft 442 kts 69°
2026-05-06 09:57 3.20439 110.54154 36791 ft 442 kts 70°
2026-05-06 09:57 3.22654 110.59886 36790 ft 442 kts 69°
2026-05-06 09:58 3.24856 110.65596 36790 ft 442 kts 69°
2026-05-06 09:58 3.27072 110.71341 36788 ft 442 kts 69°
2026-05-06 09:59 3.29292 110.77088 36790 ft 442 kts 69°
2026-05-06 09:59 3.31511 110.82830 36790 ft 442 kts 69°
2026-05-06 10:00 3.33712 110.88489 36793 ft 442 kts 69°
2026-05-06 10:00 3.35945 110.94225 36794 ft 441 kts 69°
2026-05-06 10:01 3.38158 110.99953 36796 ft 441 kts 69°
2026-05-06 10:01 3.40365 111.05661 36791 ft 441 kts 69°
2026-05-06 10:02 3.42580 111.11401 36795 ft 440 kts 70°
2026-05-06 10:02 3.44788 111.17126 36791 ft 440 kts 70°
2026-05-06 10:03 3.47003 111.22860 36791 ft 441 kts 70°
2026-05-06 10:03 3.49199 111.28551 36789 ft 441 kts 69°
2026-05-06 10:04 3.51411 111.34279 36789 ft 440 kts 70°
2026-05-06 10:04 3.53602 111.39961 36791 ft 441 kts 70°
2026-05-06 10:05 3.55795 111.45637 36791 ft 440 kts 70°
2026-05-06 10:05 3.58003 111.51363 36775 ft 440 kts 70°
2026-05-06 10:06 3.60203 111.57092 36783 ft 440 kts 70°
2026-05-06 10:06 3.62386 111.62766 36784 ft 440 kts 70°
2026-05-06 10:07 3.64585 111.68468 36780 ft 439 kts 70°
2026-05-06 10:07 3.66779 111.74175 36779 ft 439 kts 70°
2026-05-06 10:08 3.68975 111.79867 36777 ft 438 kts 70°
2026-05-06 10:08 3.71183 111.85579 36781 ft 439 kts 70°
2026-05-06 10:09 3.73378 111.91277 36789 ft 439 kts 70°
2026-05-06 10:09 3.75578 111.96980 36790 ft 439 kts 70°
2026-05-06 10:10 3.77738 112.02614 36786 ft 439 kts 70°
2026-05-06 10:10 3.79934 112.08318 36788 ft 439 kts 70°
2026-05-06 10:11 3.82132 112.14023 36790 ft 438 kts 70°
2026-05-06 10:11 3.84331 112.19731 36792 ft 439 kts 70°
2026-05-06 10:12 3.86513 112.25408 36789 ft 438 kts 70°
2026-05-06 10:12 3.88694 112.31116 36789 ft 438 kts 70°
2026-05-06 10:13 3.90892 112.36817 36793 ft 439 kts 70°
2026-05-06 10:13 3.93091 112.42529 36789 ft 439 kts 70°
2026-05-06 10:14 3.95253 112.48207 36790 ft 439 kts 70°
2026-05-06 10:14 3.97449 112.53919 36791 ft 439 kts 70°
2026-05-06 10:15 3.99635 112.59580 36784 ft 439 kts 70°
2026-05-06 10:15 4.01823 112.65300 36800 ft 439 kts 70°
2026-05-06 10:16 4.03987 112.70975 36798 ft 439 kts 70°
2026-05-06 10:16 4.06183 112.76676 36798 ft 438 kts 70°
2026-05-06 10:17 4.08391 112.82369 36800 ft 438 kts 70°
2026-05-06 10:17 4.10583 112.88076 36799 ft 438 kts 70°
2026-05-06 10:18 4.12759 112.93741 36800 ft 438 kts 70°
2026-05-06 10:18 4.14969 112.99431 36796 ft 438 kts 69°
2026-05-06 10:19 4.17180 113.05145 36801 ft 438 kts 70°
2026-05-06 10:19 4.19374 113.10842 36802 ft 439 kts 69°
2026-05-06 10:20 4.21555 113.16518 36800 ft 439 kts 69°
2026-05-06 10:20 4.23737 113.22189 36808 ft 439 kts 70°
2026-05-06 10:21 4.25937 113.27902 36810 ft 439 kts 70°
2026-05-06 10:21 4.28133 113.33624 36815 ft 439 kts 70°
2026-05-06 10:22 4.30324 113.39322 36811 ft 439 kts 70°
2026-05-06 10:22 4.32524 113.45049 36805 ft 439 kts 70°
2026-05-06 10:23 4.34710 113.50736 36817 ft 439 kts 70°
2026-05-06 10:23 4.36906 113.56462 36814 ft 439 kts 70°
2026-05-06 10:24 4.39086 113.62174 36812 ft 439 kts 70°
2026-05-06 10:24 4.41274 113.67853 36817 ft 439 kts 69°
2026-05-06 10:25 4.43491 113.73548 36813 ft 440 kts 69°
2026-05-06 10:25 4.45698 113.79219 36816 ft 440 kts 69°
2026-05-06 10:26 4.47914 113.84938 36813 ft 440 kts 69°
2026-05-06 10:26 4.50122 113.90655 36827 ft 440 kts 69°
2026-05-06 10:27 4.52326 113.96374 36820 ft 439 kts 69°
2026-05-06 10:27 4.54539 114.02087 36816 ft 440 kts 70°
2026-05-06 10:28 4.56742 114.07821 36825 ft 441 kts 70°
2026-05-06 10:28 4.58934 114.13524 36818 ft 441 kts 70°
2026-05-06 10:29 4.61126 114.19298 36816 ft 441 kts 70°
2026-05-06 10:29 4.63302 114.25013 36821 ft 441 kts 70°
2026-05-06 10:30 4.65481 114.30722 36832 ft 441 kts 69°
2026-05-06 10:30 4.67670 114.36431 36817 ft 441 kts 70°
2026-05-06 10:31 4.69854 114.42173 36817 ft 440 kts 70°
2026-05-06 10:31 4.72038 114.47918 36823 ft 440 kts 70°
2026-05-06 10:32 4.74221 114.53655 36822 ft 440 kts 70°
2026-05-06 10:32 4.76385 114.59359 36819 ft 440 kts 70°
2026-05-06 10:33 4.78575 114.65133 36818 ft 440 kts 70°
2026-05-06 10:33 4.80741 114.70839 36819 ft 440 kts 70°
2026-05-06 10:34 4.82910 114.76592 36823 ft 440 kts 70°
2026-05-06 10:34 4.85068 114.82312 36822 ft 441 kts 70°
2026-05-06 10:35 4.87237 114.88007 36838 ft 442 kts 70°
2026-05-06 10:35 4.89208 114.93845 36822 ft 442 kts 72°
2026-05-06 10:36 4.91127 114.99707 36810 ft 441 kts 72°
2026-05-06 10:36 4.93039 115.05531 36818 ft 441 kts 72°
2026-05-06 10:37 4.94960 115.11385 36824 ft 442 kts 72°
2026-05-06 10:37 4.96886 115.17258 36823 ft 441 kts 72°
2026-05-06 10:38 4.98805 115.23124 36823 ft 442 kts 72°
2026-05-06 10:38 5.00709 115.28934 36824 ft 442 kts 72°
2026-05-06 10:39 5.02626 115.34797 36832 ft 442 kts 72°
2026-05-06 10:39 5.04551 115.40670 36814 ft 443 kts 72°
2026-05-06 10:40 5.06128 115.45489 36821 ft 442 kts 72°
2026-05-06 10:40 5.08367 115.52326 36819 ft 443 kts 72°
2026-05-06 10:41 5.09964 115.57215 36812 ft 443 kts 72°
2026-05-06 10:41 5.11885 115.63088 36813 ft 442 kts 72°
2026-05-06 10:42 5.13805 115.68958 36811 ft 443 kts 72°
2026-05-06 10:42 5.15707 115.74809 36810 ft 442 kts 72°
2026-05-06 10:43 5.17612 115.80687 36813 ft 442 kts 72°
2026-05-06 10:44 5.20472 115.89497 36810 ft 442 kts 72°
2026-05-06 10:44 5.22376 115.95375 36816 ft 442 kts 72°
2026-05-06 10:45 5.24268 116.01210 36805 ft 443 kts 72°
2026-05-06 10:45 5.26174 116.07101 36801 ft 444 kts 72°
2026-05-06 10:46 5.28088 116.12999 36800 ft 444 kts 72°
2026-05-06 10:46 5.30001 116.18908 36801 ft 444 kts 72°
2026-05-06 10:47 5.31904 116.24798 36802 ft 443 kts 72°
2026-05-06 10:47 5.33798 116.30652 36802 ft 443 kts 72°
2026-05-06 10:48 5.35703 116.36538 36801 ft 443 kts 72°
2026-05-06 10:48 5.37606 116.42429 36801 ft 443 kts 72°
2026-05-06 10:49 5.39499 116.48280 36801 ft 444 kts 72°
2026-05-06 10:49 5.41405 116.54178 36799 ft 444 kts 72°
2026-05-06 10:50 5.43305 116.60071 36803 ft 443 kts 72°
2026-05-06 10:50 5.45211 116.65962 36798 ft 444 kts 72°
2026-05-06 10:51 5.47115 116.71857 36797 ft 444 kts 72°
2026-05-06 10:51 5.49005 116.77720 36800 ft 444 kts 72°
2026-05-06 10:52 5.50910 116.83614 36802 ft 443 kts 72°
2026-05-06 10:52 5.52815 116.89518 36806 ft 444 kts 73°
2026-05-06 10:53 5.54718 116.95416 36810 ft 444 kts 73°
2026-05-06 10:53 5.56623 117.01331 36814 ft 444 kts 73°
2026-05-06 10:54 5.58523 117.07229 36811 ft 444 kts 73°
2026-05-06 10:54 5.60416 117.13101 36808 ft 445 kts 73°
2026-05-06 10:55 5.62292 117.18959 36808 ft 444 kts 73°
2026-05-06 10:55 5.64186 117.24867 36805 ft 444 kts 73°
2026-05-06 10:56 5.66078 117.30775 36809 ft 444 kts 73°
2026-05-06 10:56 5.67961 117.36655 36817 ft 444 kts 73°
2026-05-06 10:57 5.69851 117.42567 36826 ft 445 kts 73°
2026-05-06 10:57 5.71742 117.48490 36815 ft 444 kts 73°
2026-05-06 10:58 5.73608 117.54403 36817 ft 444 kts 74°
2026-05-06 10:58 5.75474 117.60323 36822 ft 444 kts 73°
2026-05-06 10:59 5.77330 117.66214 36821 ft 445 kts 73°
2026-05-06 10:59 5.79206 117.72141 36822 ft 445 kts 73°
2026-05-06 11:00 5.81061 117.78006 36823 ft 445 kts 73°
2026-05-06 11:00 5.82934 117.83931 36816 ft 445 kts 73°
2026-05-06 11:01 5.84805 117.89844 36815 ft 444 kts 73°
2026-05-06 11:01 5.86680 117.95772 36823 ft 445 kts 73°
2026-05-06 11:02 5.88536 118.01664 36822 ft 445 kts 73°
2026-05-06 11:02 5.90390 118.07607 36822 ft 445 kts 75°
2026-05-06 11:03 5.91984 118.13609 36819 ft 444 kts 76°
2026-05-06 11:03 5.93546 118.19576 36817 ft 444 kts 76°
2026-05-06 11:04 5.95124 118.25581 36814 ft 444 kts 76°
2026-05-06 11:04 5.96699 118.31596 36818 ft 444 kts 76°
2026-05-06 11:05 5.98271 118.37585 36819 ft 444 kts 76°
2026-05-06 11:05 5.99847 118.43589 36818 ft 445 kts 76°
2026-05-06 11:06 6.01412 118.49565 36822 ft 445 kts 76°
2026-05-06 11:06 6.02987 118.55580 36824 ft 445 kts 76°
2026-05-06 11:07 6.04546 118.61585 36819 ft 445 kts 76°
2026-05-06 11:07 6.06101 118.67604 36818 ft 445 kts 76°
2026-05-06 11:08 6.07662 118.73623 36820 ft 445 kts 76°
2026-05-06 11:08 6.09220 118.79642 36818 ft 445 kts 76°
2026-05-06 11:09 6.10780 118.85665 36820 ft 445 kts 76°
2026-05-06 11:09 6.12339 118.91699 36824 ft 446 kts 76°
2026-05-06 11:10 6.13880 118.97656 36818 ft 446 kts 76°
2026-05-06 11:10 6.15441 119.03697 36823 ft 447 kts 76°
2026-05-06 11:11 6.17002 119.09752 36819 ft 447 kts 76°
2026-05-06 11:11 6.18568 119.15799 36816 ft 448 kts 76°
2026-05-06 11:12 6.20124 119.21819 36819 ft 447 kts 76°
2026-05-06 11:12 6.21686 119.27873 36823 ft 448 kts 76°
2026-05-06 11:13 6.23249 119.33935 36831 ft 447 kts 76°
2026-05-06 11:13 6.24811 119.40002 36821 ft 448 kts 76°
2026-05-06 11:14 6.26375 119.46078 36819 ft 448 kts 76°
2026-05-06 11:14 6.27930 119.52113 36821 ft 449 kts 76°
2026-05-06 11:15 6.29481 119.58130 36824 ft 449 kts 76°
2026-05-06 11:15 6.31050 119.64218 36843 ft 449 kts 76°
2026-05-06 11:16 6.32619 119.70324 36849 ft 449 kts 76°
2026-05-06 11:16 6.34171 119.76369 36848 ft 449 kts 76°
2026-05-06 11:17 6.35733 119.82448 36851 ft 450 kts 76°
2026-05-06 11:17 6.37295 119.88538 36846 ft 449 kts 76°
2026-05-06 11:18 6.38858 119.94628 36858 ft 449 kts 76°
2026-05-06 11:18 6.40421 120.00719 36859 ft 449 kts 76°
2026-05-06 11:19 6.41977 120.06792 36861 ft 449 kts 76°
2026-05-06 11:19 6.43539 120.12890 36863 ft 450 kts 76°
2026-05-06 11:20 6.45091 120.18952 36854 ft 449 kts 76°
2026-05-06 11:20 6.46651 120.25040 36858 ft 449 kts 76°
2026-05-06 11:21 6.48206 120.31132 36860 ft 450 kts 76°
2026-05-06 11:21 6.49750 120.37187 36852 ft 449 kts 76°
2026-05-06 11:22 6.51307 120.43278 36854 ft 449 kts 76°
2026-05-06 11:22 6.52864 120.49358 36858 ft 449 kts 76°
2026-05-06 11:23 6.54422 120.55450 36865 ft 449 kts 76°
2026-05-06 11:23 6.55973 120.61535 36868 ft 449 kts 76°
2026-05-06 11:24 6.57514 120.67595 36873 ft 449 kts 76°
2026-05-06 11:24 6.59070 120.73680 36873 ft 449 kts 76°
2026-05-06 11:25 6.60612 120.79751 36869 ft 449 kts 76°
2026-05-06 11:25 6.61903 120.84812 36869 ft 449 kts 76°
2026-05-06 11:26 6.63453 120.90906 36868 ft 449 kts 76°
2026-05-06 11:26 6.65000 120.96986 36868 ft 449 kts 76°
2026-05-06 11:27 6.66547 121.03092 36868 ft 449 kts 76°
2026-05-06 11:27 6.68093 121.09182 36868 ft 449 kts 76°
2026-05-06 11:28 6.69636 121.15240 36873 ft 449 kts 76°
2026-05-06 11:28 6.71182 121.21336 36879 ft 449 kts 76°
2026-05-06 11:29 6.72729 121.27438 36880 ft 449 kts 76°
2026-05-06 11:29 6.74277 121.33542 36879 ft 450 kts 76°
2026-05-06 11:30 6.75804 121.39562 36881 ft 449 kts 76°
2026-05-06 11:30 6.77345 121.45656 36880 ft 450 kts 76°
2026-05-06 11:31 6.78888 121.51756 36878 ft 449 kts 76°
2026-05-06 11:31 6.80430 121.57860 36881 ft 449 kts 76°
2026-05-06 11:32 6.81962 121.63920 36881 ft 449 kts 76°
2026-05-06 11:32 6.83500 121.70014 36880 ft 449 kts 76°
2026-05-06 11:33 6.85039 121.76124 36882 ft 450 kts 76°
2026-05-06 11:33 6.86584 121.82234 36881 ft 449 kts 76°
2026-05-06 11:34 6.88114 121.88291 36880 ft 448 kts 76°
2026-05-06 11:34 6.89647 121.94389 36881 ft 449 kts 76°
2026-05-06 11:35 6.91177 122.00463 36877 ft 449 kts 76°
2026-05-06 11:35 6.92578 122.06600 36881 ft 449 kts 82°
2026-05-06 11:36 6.93298 122.12807 36883 ft 449 kts 84°
2026-05-06 11:36 6.93997 122.19057 36879 ft 449 kts 84°
2026-05-06 11:37 6.94725 122.25315 36881 ft 449 kts 84°
2026-05-06 11:37 6.95441 122.31562 36879 ft 450 kts 83°
2026-05-06 11:38 6.96162 122.37810 36880 ft 449 kts 84°
2026-05-06 11:38 6.96877 122.44069 36882 ft 449 kts 84°
2026-05-06 11:39 6.97581 122.50295 36880 ft 448 kts 84°
2026-05-06 11:39 6.98276 122.56503 36882 ft 448 kts 84°
2026-05-06 11:40 6.98994 122.62724 36878 ft 448 kts 84°
2026-05-06 11:40 6.99717 122.68958 36877 ft 448 kts 84°
2026-05-06 11:41 7.00424 122.75212 36871 ft 448 kts 84°
2026-05-06 11:41 7.01126 122.81423 36869 ft 450 kts 84°
2026-05-06 11:42 7.01834 122.87679 36868 ft 449 kts 84°
2026-05-06 11:42 7.02548 122.93929 36869 ft 450 kts 84°
2026-05-06 11:43 7.03257 123.00185 36865 ft 449 kts 84°
2026-05-06 11:43 7.03964 123.06436 36869 ft 449 kts 84°
2026-05-06 11:44 7.05016 123.15793 36870 ft 448 kts 84°
2026-05-06 11:44 7.05715 123.22031 36875 ft 449 kts 84°
2026-05-06 11:45 7.06408 123.28166 36872 ft 449 kts 84°
2026-05-06 11:45 7.07115 123.34410 36869 ft 448 kts 84°
2026-05-06 11:46 7.07814 123.40668 36870 ft 449 kts 84°
2026-05-06 11:46 7.08509 123.46868 36870 ft 449 kts 84°
2026-05-06 11:47 7.09208 123.53128 36871 ft 449 kts 84°
2026-05-06 11:47 7.09904 123.59384 36866 ft 449 kts 84°
2026-05-06 11:48 7.10602 123.65601 36861 ft 449 kts 84°
2026-05-06 11:48 7.11299 123.71870 36859 ft 449 kts 84°
2026-05-06 11:49 7.11997 123.78112 36858 ft 449 kts 84°
2026-05-06 11:49 7.12690 123.84329 36861 ft 449 kts 84°
2026-05-06 11:50 7.13385 123.90562 36860 ft 449 kts 84°
2026-05-06 11:50 7.14078 123.96803 36858 ft 449 kts 84°
2026-05-06 11:51 7.14770 124.03068 36856 ft 448 kts 84°
2026-05-06 11:51 7.15458 124.09278 36861 ft 448 kts 84°
2026-05-06 11:52 7.16151 124.15527 36855 ft 448 kts 84°
2026-05-06 11:52 7.16496 124.18652 36576 ft 447 kts 84°
2026-05-06 11:52 7.16874 124.21765 36260 ft 447 kts 82°
2026-05-06 11:53 7.17321 124.24822 35862 ft 447 kts 82°
2026-05-06 11:53 7.17789 124.27957 35249 ft 445 kts 82°
2026-05-06 11:53 7.18250 124.31047 34560 ft 446 kts 82°
2026-05-06 11:53 7.18705 124.34097 33850 ft 447 kts 81°
2026-05-06 11:54 7.19165 124.37193 33137 ft 448 kts 82°
2026-05-06 11:54 7.19632 124.40340 32413 ft 448 kts 82°
2026-05-06 11:54 7.20083 124.43397 31737 ft 447 kts 82°
2026-05-06 11:54 7.20541 124.46498 31060 ft 446 kts 82°
2026-05-06 11:55 7.20990 124.49553 30415 ft 442 kts 82°
2026-05-06 11:55 7.21443 124.52617 29772 ft 440 kts 81°
2026-05-06 11:55 7.21895 124.55654 29102 ft 438 kts 81°
2026-05-06 11:55 7.22345 124.58692 28440 ft 435 kts 81°
2026-05-06 11:56 7.22789 124.61704 27774 ft 433 kts 81°
2026-05-06 11:56 7.23228 124.64658 27142 ft 430 kts 81°
2026-05-06 11:56 7.23668 124.67636 26460 ft 428 kts 81°
2026-05-06 11:56 7.24104 124.70591 25797 ft 425 kts 81°
2026-05-06 11:57 7.24538 124.73534 25147 ft 422 kts 81°
2026-05-06 11:57 7.24967 124.76449 24516 ft 420 kts 81°
2026-05-06 11:57 7.25395 124.79355 23856 ft 417 kts 81°
2026-05-06 11:57 7.25816 124.82242 23205 ft 413 kts 81°
2026-05-06 11:58 7.26232 124.85069 22587 ft 411 kts 81°
2026-05-06 11:58 7.26650 124.87899 21946 ft 407 kts 81°
2026-05-06 11:58 7.27065 124.90723 21297 ft 405 kts 81°
2026-05-06 11:58 7.27475 124.93514 20665 ft 402 kts 81°
2026-05-06 11:59 7.27882 124.96277 20053 ft 395 kts 81°
2026-05-06 11:59 7.28281 124.98987 19484 ft 388 kts 81°
2026-05-06 11:59 7.28673 125.01662 18941 ft 381 kts 81°
2026-05-06 11:59 7.29057 125.04287 18413 ft 375 kts 81°
2026-05-06 12:00 7.29428 125.06811 17919 ft 368 kts 81°
2026-05-06 12:00 7.29802 125.09339 17436 ft 361 kts 81°
2026-05-06 12:00 7.30168 125.11835 16944 ft 360 kts 81°
2026-05-06 12:00 7.30534 125.14331 16439 ft 359 kts 81°
2026-05-06 12:01 7.30900 125.16826 15952 ft 359 kts 81°
2026-05-06 12:01 7.31262 125.19321 15477 ft 358 kts 81°
2026-05-06 12:01 7.31625 125.21800 15001 ft 358 kts 81°
2026-05-06 12:01 7.31983 125.24254 14517 ft 358 kts 81°
2026-05-06 12:02 7.32345 125.26727 14025 ft 357 kts 81°
2026-05-06 12:02 7.32711 125.29217 13529 ft 357 kts 81°
2026-05-06 12:02 7.33071 125.31695 13036 ft 356 kts 81°
2026-05-06 12:02 7.33429 125.34163 12558 ft 356 kts 81°
2026-05-06 12:03 7.33783 125.36582 12087 ft 350 kts 81°
2026-05-06 12:03 7.34114 125.38999 11643 ft 343 kts 83°
2026-05-06 12:03 7.34142 125.41372 11199 ft 335 kts 90°
2026-05-06 12:03 7.34058 125.43638 10770 ft 330 kts 91°
2026-05-06 12:04 7.33964 125.45912 10494 ft 318 kts 91°
2026-05-06 12:04 7.33879 125.48066 10294 ft 305 kts 90°
2026-05-06 12:04 7.33802 125.50162 10049 ft 295 kts 90°
2026-05-06 12:04 7.33728 125.52200 9720 ft 288 kts 90°
2026-05-06 12:05 7.33659 125.54194 9339 ft 285 kts 90°
2026-05-06 12:05 7.33587 125.56154 9071 ft 277 kts 90°
2026-05-06 12:05 7.33517 125.58076 8651 ft 273 kts 90°
2026-05-06 12:05 7.33449 125.59941 8194 ft 271 kts 90°
2026-05-06 12:06 7.33379 125.61873 7787 ft 266 kts 90°
2026-05-06 12:06 7.33314 125.63689 7478 ft 257 kts 90°
2026-05-06 12:06 7.33248 125.65457 7132 ft 248 kts 90°
2026-05-06 12:06 7.33190 125.67154 6766 ft 238 kts 90°
2026-05-06 12:07 7.33132 125.68760 6573 ft 225 kts 90°
2026-05-06 12:07 7.33077 125.70338 6288 ft 225 kts 90°
2026-05-06 12:07 7.32813 125.71878 5934 ft 227 kts 106°
2026-05-06 12:07 7.31906 125.73160 5561 ft 229 kts 138°
2026-05-06 12:08 7.30667 125.74140 5215 ft 225 kts 140°
2026-05-06 12:08 7.29454 125.75126 4847 ft 221 kts 139°
2026-05-06 12:08 7.28288 125.76098 4554 ft 210 kts 138°
2026-05-06 12:08 7.27192 125.77021 4221 ft 202 kts 138°
2026-05-06 12:09 7.26075 125.77889 3931 ft 204 kts 148°
2026-05-06 12:09 7.24689 125.78111 3636 ft 206 kts 189°
2026-05-06 12:09 7.23484 125.77392 3389 ft 202 kts 228°
2026-05-06 12:09 7.22591 125.76302 3146 ft 202 kts 233°
2026-05-06 12:10 7.21697 125.75245 2855 ft 202 kts 231°
2026-05-06 12:10 7.20788 125.74174 2491 ft 200 kts 229°
2026-05-06 12:10 7.19913 125.73150 2128 ft 180 kts 228°
2026-05-06 12:10 7.19395 125.72539 1865 ft 168 kts 228°
2026-05-06 12:11 7.18465 125.71447 1481 ft 136 kts 230°
2026-05-06 12:11 7.18062 125.70981 1370 ft 131 kts 230°
2026-05-06 12:11 7.17465 125.70294 1259 ft 130 kts 229°
2026-05-06 12:11 7.16873 125.69609 1173 ft 129 kts 230°
2026-05-06 12:12 7.16285 125.68916 1017 ft 130 kts 229°
2026-05-06 12:12 7.15692 125.68233 796 ft 129 kts 228°
2026-05-06 12:12 7.15097 125.67556 596 ft 129 kts 228°
2026-05-06 12:12 7.14516 125.66868 416 ft 129 kts 229°
2026-05-06 12:13 7.13928 125.66182 269 ft 130 kts 229°
2026-05-06 12:13 7.13340 125.65488 117 ft 130 kts 229°
2026-05-06 12:13 7.12857 125.64928 107 ft 67 kts 229°
2026-05-06 12:13 7.12643 125.64680 106 ft 28 kts 229°
2026-05-06 12:14 7.12569 125.64579 106 ft 13 kts 268°
2026-05-06 12:14 7.12631 125.64500 106 ft 16 kts 320°
2026-05-06 12:14 7.12695 125.64447 106 ft 9 kts 320°
2026-05-06 12:14 7.12756 125.64468 106 ft 11 kts 46°
2026-05-06 12:15 7.12806 125.64524 106 ft 11 kts 49°
2026-05-06 12:15 7.12857 125.64584 107 ft 13 kts 49°
2026-05-06 12:15 7.12920 125.64657 107 ft 14 kts 49°
2026-05-06 12:15 7.12962 125.64699 107 ft 10 kts 16°
2026-05-06 12:16 7.13014 125.64663 107 ft 3 kts 322°
2026-05-06 12:16 7.13030 125.64652 107 ft 4 kts 322°
2026-05-06 12:16 7.13034 125.64648 107 ft 0 kts 322°
2026-05-06 12:52 7.13032 125.64650 107 ft 0 kts 322°